Location: Casilda
(33.0440°S, 61.1680°W)
Time: 08:57:21
(UTC-03:00)

ISS - Pass Details

Date: 19 September 2023
Orbit: 413 x 421 km, 51.6° (Epoch: 26 September)

Event Time Altitude Azimuth Distance (km) Brightness Sun altitude
Exits shadow 05:37:15 24° 348° (NNW) 941 -2.2 -17.8°
Maximum altitude 05:38:57 44° 48° (NE) 604 -2.7 -17.5°
Drops below altitude 10° 05:42:15 10° 121° (ESE) 1,530 0.2 -16.8°
Sets 05:44:25 0° 127° (SE) 2,402 1.2 -16.3°
